2020-102D

Last updated on Fri Jan 22 2021 00:02:02 GMT+0000 (Coordinated Universal Time)

1 47299U 20102D 21021.74784567 .00000829 00000-0 41971-4 0 9995 2 47299 97.4340 121.6818 0006391 60.9757 90.5316 15.19732145 4635
UTC large
Height (km)
Speed (km/s)
/
Latitude / Longitude
Inclination (degrees)
Orbital Period (minutes)
Azimuth
Elevation
Range (km)
Doppler Factor

Next 0 passes for location: London (51.5072 / 0.1276)

Sorry there are no passes over London.